| time (UTC) | temp C | wind direction | speed KPH | gust KPH | rain 1hr cm | rain 24hr cm | rain mn cm | humidity % | barometer mb |
| 20260503013042 | 17 | 0 | 0.0 | 0.0 | 0.00 | 0.00 | 0.00 | 35 | 1014.9 |
| 20260503011548 | 18 | 0 | 0.0 | 0.0 | 0.00 | 0.00 | 0.00 | 34 | 1014.9 |
| 20260503010042 | 18 | 0 | 0.0 | 0.0 | 0.00 | 0.00 | 0.00 | 33 | 1015.0 |
| 20260503004609 | 19 | 0 | 0.0 | 1.6 | 0.00 | 0.00 | 0.00 | 32 | 1015.2 |
| 20260503003042 | 20 | 0 | 0.0 | 6.4 | 0.00 | 0.00 | 0.00 | 32 | 1015.2 |
| 20260503001541 | 19 | 0 | 0.0 | 3.2 | 0.00 | 0.00 | 0.00 | 33 | 1015.2 |
| 20260503000059 | 18 | 0 | 0.0 | 0.0 | 0.00 | 0.00 | 0.00 | 34 | 1015.5 |
| 20260502234543 | 19 | 0 | 0.0 | 0.0 | 0.00 | 0.00 | 0.00 | 32 | 1015.7 |
| 20260502233040 | 20 | 0 | 0.0 | 6.4 | 0.00 | 0.00 | 0.00 | 33 | 1015.9 |
| 20260502231542 | 20 | 95 | 3.2 | 12.9 | 0.00 | 0.00 | 0.00 | 32 | 1016.3 |
| 20260502230043 | 19 | 66 | 3.2 | 17.7 | 0.00 | 0.00 | 0.00 | 33 | 1016.3 |
| 20260502224541 | 19 | 124 | 3.2 | 12.9 | 0.00 | 0.00 | 0.00 | 33 | 1016.4 |
| 20260502223041 | 19 | 72 | 4.8 | 8.0 | 0.00 | 0.00 | 0.00 | 33 | 1016.5 |
| 20260502221538 | 19 | 0 | 0.0 | 11.3 | 0.00 | 0.00 | 0.00 | 36 | 1016.8 |
| 20260502220053 | 18 | 0 | 0.0 | 0.0 | 0.00 | 0.00 | 0.00 | 34 | 1017.1 |
| 20260502214543 | 18 | 0 | 3.2 | 8.0 | 0.00 | 0.00 | 0.00 | 35 | 1017.2 |
| 20260502213043 | 19 | 103 | 1.6 | 14.5 | 0.00 | 0.00 | 0.00 | 33 | 1017.3 |
| 20260502211542 | 19 | 94 | 4.8 | 11.3 | 0.00 | 0.00 | 0.00 | 33 | 1017.5 |
| 20260502210040 | 20 | 0 | 0.0 | 6.4 | 0.00 | 0.00 | 0.00 | 33 | 1017.7 |
| 20260502204542 | 20 | 0 | 0.0 | 1.6 | 0.00 | 0.00 | 0.00 | 33 | 1017.7 |
| 20260502203041 | 20 | 0 | 0.0 | 3.2 | 0.00 | 0.00 | 0.00 | 35 | 1018.0 |
| 20260502201545 | 18 | 0 | 1.6 | 6.4 | 0.00 | 0.00 | 0.00 | 36 | 1018.1 |
| 20260502200057 | 17 | 348 | 8.0 | 19.3 | 0.00 | 0.00 | 0.00 | 37 | 1018.4 |
| 20260502194543 | 19 | 90 | 0.0 | 8.0 | 0.00 | 0.00 | 0.00 | 33 | 1018.3 |
| 20260502193044 | 18 | 23 | 3.2 | 9.7 | 0.00 | 0.00 | 0.00 | 35 | 1018.5 |
| 20260502191545 | 18 | 0 | 0.0 | 14.5 | 0.00 | 0.00 | 0.00 | 37 | 1018.8 |
| 20260502190047 | 17 | 37 | 8.0 | 20.9 | 0.00 | 0.00 | 0.00 | 38 | 1018.8 |
| 20260502184538 | 18 | 0 | 0.0 | 8.0 | 0.00 | 0.00 | 0.00 | 36 | 1019.0 |
| 20260502183043 | 18 | 0 | 0.0 | 9.7 | 0.00 | 0.00 | 0.00 | 37 | 1019.2 |
| 20260502181541 | 17 | 0 | 0.0 | 16.1 | 0.00 | 0.00 | 0.00 | 38 | 1019.2 |
| 20260502163047 | 15 | 0 | 0.0 | 3.2 | 0.00 | 0.00 | 0.00 | 42 | 1019.9 |
| 20260502161537 | 15 | 34 | 4.8 | 12.9 | 0.00 | 0.00 | 0.00 | 42 | 1019.9 |
| 20260502151600 | 13 | 0 | 0.0 | 1.6 | 0.00 | 0.00 | 0.00 | 47 | 1019.9 |
| 20260502123042 | 6 | 0 | 0.0 | 1.6 | 0.00 | 0.00 | 0.00 | 61 | 1018.5 |
| 20260502121543 | 6 | 0 | 0.0 | 0.0 | 0.00 | 0.00 | 0.00 | 61 | 1018.3 |
| 20260502114540 | 7 | 0 | 0.0 | 0.0 | 0.00 | 0.00 | 0.00 | 60 | 1017.5 |
| 20260502113047 | 7 | 0 | 0.0 | 0.0 | 0.00 | 0.00 | 0.00 | 59 | 1017.4 |
| 20260502111546 | 7 | 0 | 0.0 | 0.0 | 0.00 | 0.00 | 0.00 | 56 | 1017.3 |
| 20260502110041 | 7 | 0 | 0.0 | 0.0 | 0.00 | 0.00 | 0.00 | 55 | 1017.3 |
| 20260502104541 | 7 | 0 | 0.0 | 0.0 | 0.00 | 0.00 | 0.00 | 54 | 1017.1 |
| 20260502103041 | 7 | 0 | 0.0 | 0.0 | 0.00 | 0.00 | 0.00 | 53 | 1017.0 |
| 20260502101537 | 8 | 0 | 0.0 | 0.0 | 0.00 | 0.00 | 0.00 | 51 | 1016.7 |
| 20260502090106 | 8 | 0 | 0.0 | 0.0 | 0.00 | 0.00 | 0.00 | 46 | 1015.9 |
| 20260502070048 | 8 | 0 | 0.0 | 0.0 | 0.00 | 0.00 | 0.00 | 40 | 1015.6 |
| 20260502064556 | 8 | 0 | 0.0 | 1.6 | 0.00 | 0.00 | 0.00 | 40 | 1015.6 |
| 20260502063048 | 10 | 0 | 0.0 | 0.0 | 0.00 | 0.00 | 0.00 | 36 | 1015.3 |
| 20260502061541 | 10 | 0 | 0.0 | 0.0 | 0.00 | 0.00 | 0.00 | 35 | 1015.3 |
| 20260502060042 | 11 | 0 | 0.0 | 0.0 | 0.00 | 0.00 | 0.00 | 35 | 1015.2 |
| 20260502054537 | 10 | 0 | 0.0 | 0.0 | 0.00 | 0.00 | 0.00 | 36 | 1015.1 |
| 20260502053045 | 11 | 0 | 0.0 | 0.0 | 0.00 | 0.00 | 0.00 | 36 | 1015.0 |
| 20260502051543 | 11 | 0 | 0.0 | 0.0 | 0.00 | 0.00 | 0.00 | 34 | 1015.0 |
| 20260502050042 | 12 | 0 | 0.0 | 0.0 | 0.00 | 0.00 | 0.00 | 33 | 1015.0 |
| 20260502044541 | 12 | 0 | 0.0 | 0.0 | 0.00 | 0.00 | 0.00 | 34 | 1015.1 |
| 20260502043042 | 11 | 0 | 0.0 | 0.0 | 0.00 | 0.00 | 0.00 | 34 | 1015.0 |
| 20260502041545 | 12 | 0 | 0.0 | 0.0 | 0.00 | 0.00 | 0.00 | 33 | 1014.9 |
| 20260502040036 | 12 | 0 | 0.0 | 0.0 | 0.00 | 0.00 | 0.00 | 32 | 1014.9 |
| 20260502034542 | 13 | 0 | 0.0 | 0.0 | 0.00 | 0.00 | 0.00 | 30 | 1014.9 |
| 20260502033042 | 14 | 0 | 0.0 | 0.0 | 0.00 | 0.00 | 0.00 | 28 | 1014.8 |
| 20260502031542 | 15 | 0 | 0.0 | 0.0 | 0.00 | 0.00 | 0.00 | 26 | 1014.7 |
| 20260502030042 | 16 | 0 | 0.0 | 0.0 | 0.00 | 0.00 | 0.00 | 25 | 1014.4 |
| 20260502024551 | 17 | 0 | 0.0 | 0.0 | 0.00 | 0.00 | 0.00 | 24 | 1014.2 |
| 20260502023051 | 18 | 0 | 0.0 | 0.0 | 0.00 | 0.00 | 0.00 | 24 | 1014.1 |
| 20260502021543 | 19 | 0 | 0.0 | 0.0 | 0.00 | 0.00 | 0.00 | 23 | 1013.9 |
| 20260502020042 | 20 | 0 | 0.0 | 0.0 | 0.00 | 0.00 | 0.00 | 22 | 1013.9 |
| 20260502014538 | 21 | 0 | 0.0 | 0.0 | 0.00 | 0.00 | 0.00 | 21 | 1013.9 |